Back to catalog

QIANFAN-108

AliveCommunicationsPO
NORAD 66050·PAYLOAD·🇨🇳 China

Launched Oct 17, 2025 from Taiyuan Satellite Launch Center

Loading…

Next Passes (next 24 hours)

TLE

FreshSource: Space-Track

Epoch: Sep 14, 2026, 08:58 UTC

1 66050U 25233T   26257.37422412  .00000072  00000-0  92471-4 0  9995
2 66050  89.0048  34.1570 0001619 105.1756 254.9574 13.51028558 45238

Track QIANFAN-108 in real time with AllMySat

Download on the App Store